Tracking 35275 objects as of 9-Sep-2026
HD Live streaming from Space Station
objects crossing your sky now

PSLV DEB


PSLV DEB is no longer on orbit


NORAD ID: 27195
Int'l Code: 2001-049EP
Launch date: October 22, 2001
Source: India (IND)
Launch site: SRIHARIKOTA (SRI)
Decay date: 2002-02-23

Note: This is SATELLITE DEBRIS
Your satellite tracking list
Your tracking list is empty




NASA's NSSDC Master Catalog

Two Line Element Set (TLE):
1 27195U 01049EP  02051.37737985 +.02989311 +00000-0 +17525-1 0  9999
2 27195 098.4296 137.2655 0053116 186.4659 173.5648 15.73116524008814
Source of the keplerian elements: AFSPC